Tracking 18980 objects as of 21-Feb-2018
HD Live streaming from Space Station
objects crossing your sky now

COSMOS 1290

Track COSMOS 1290 now!
10-day predictions
COSMOS 1290 is classified as:


NORAD ID: 12639
Int'l Code: 1981-074D
Perigee: 1,448.9 km
Apogee: 1,471.2 km
Inclination: 74.0 °
Period: 114.9 minutes
Semi major axis: 7831 km
RCS: 0.688 m2 (medium)
Launch date: August 6, 1981
Source: Commonwealth of Independent States (former USSR) (CIS)
Launch site: PLESETSK MISSILE AND SPACE COMPLEX (PKMTR)
aabbcc
Your satellite tracking list
Your tracking list is empty




NASA's NSSDC Master Catalog

Two Line Element Set (TLE):
1 12639U 81074D   18051.91400414 -.00000005 +00000-0 +66356-4 0  9995
2 12639 074.0354 318.2106 0014239 092.0963 345.2389 12.52785798671209
Source of the keplerian elements: AFSPC